www.pogodaiklimat.ru

Погода и климат >> Архив погоды >> Финляндия >> Остров Каллан


ПОГОДА на Острове Каллан

  • Прогноз погоды на Острове Каллан
  • Монитор погоды на Острове Каллан

АРХИВ ПОГОДЫ на Острове Каллан

Время (UTC), дата Ветер
(напр.,м/с)
 
Видим.   Явления Облачность Т
(С)
Тd
(С)
f
(%)
Тe
(С)
Тes
(С)
Комфортность P
(гПа)
Po
(гПа)
Тmin
(С)
Tmax
(С)
R
(мм)
R24
(мм)
S
(см)
01 13.09 З 9 н/о н/о +13.0 +9.5 79 +10 +10 1003.6 1001.4
02 13.09 З 11 н/о н/о +12.7 +8.4 75 +9 +9 1003.6 1001.4
03 13.09 З 11 н/о н/о +12.2 +7.5 73 +9 +9 1003.3 1001.1
04 13.09 З 12 н/о н/о +12.2 +7.0 71 +8 +8 1003.5 1001.3
05 13.09 З 11 н/о н/о +11.9 +7.4 74 +8 +8 1003.5 1001.3
06 13.09 З 11 н/о н/о +11.4 +5.7 68 +7 +7 1004.1 1001.9 +11.4 +15.3
07 13.09 З 12 н/о н/о +11.6 +6.8 72 +8 +8 1003.9 1001.8
08 13.09 З 10 н/о н/о +11.4 +5.5 67 +8 +8 1004.0 1001.8
09 13.09 З 10 н/о н/о +11.3 +5.8 69 +7 +7 1004.1 1001.9
10 13.09 З 10 н/о н/о +11.5 +5.9 68 +8 +8 1004.1 1001.9
11 13.09 З 10 н/о н/о +12.0 +6.3 68 +8 +8 1004.2 1002.0
12 13.09 З 9 н/о н/о +12.5 +6.6 67 +9 +9 1004.3 1002.2
13 13.09 З 11 н/о н/о +12.9 +5.7 62 +10 +10 1004.3 1002.2
14 13.09 З 13 н/о н/о +13.2 +5.9 61 +10 +10 1004.2 1002.0
15 13.09 СЗ 12 н/о н/о +11.9 +7.3 73 +8 +8 1004.7 1002.5
16 13.09 СЗ 10 н/о н/о +11.4 +7.8 79 +8 +8 1005.3 1003.1
17 13.09 СЗ 13 н/о н/о +12.4 +6.9 69 +9 +9 1005.4 1003.2
18 13.09 З 12 н/о н/о +12.5 +7.4 71 +9 +9 1005.9 1003.7 +10.6 +13.5
19 13.09 СЗ 14 н/о н/о +12.8 +7.5 70 +9 +9 1006.0 1003.8
20 13.09 СЗ 14 н/о н/о +12.0 +7.0 71 +8 +8 1006.5 1004.3
21 13.09 СЗ 14 н/о н/о +11.8 +6.4 69 +8 +8 1007.1 1004.9
22 13.09 СЗ 14 н/о н/о +11.4 +5.6 67 +7 +7 1007.4 1005.3
23 13.09 СЗ 13 н/о н/о +10.7 +4.6 66 +6 +6 1007.8 1005.6
00 14.09 СЗ 13 н/о н/о +10.3 +5.7 73 +6 +6 1008.3 1006.1
01 14.09 СЗ 12 н/о н/о +9.7 +4.9 72 +5 +5 1008.5 1006.3
02 14.09 СЗ 11 н/о н/о +9.7 +5.4 75 +5 +5 1008.9 1006.7
03 14.09 СЗ 10 н/о н/о +9.3 +5.0 74 +5 +5 1009.4 1007.1
04 14.09 СЗ 9 н/о н/о +9.4 +5.5 77 +5 +5 1009.6 1007.4
05 14.09 СЗ 8 н/о н/о +9.2 +6.0 80 +5 +5 1010.0 1007.8
06 14.09 СЗ 7 н/о н/о +9.3 +5.4 77 +5 +5 1010.4 1008.2 +9.1 +12.9
07 14.09 СЗ 7 н/о н/о +9.2 +5.3 77 +5 +5 1010.7 1008.5
08 14.09 СЗ 6 н/о н/о +9.3 +5.6 78 +6 +6 1011.0 1008.8
09 14.09 З 6 н/о н/о +9.4 +5.1 74 +6 +6 1011.4 1009.2
10 14.09 З 6 н/о н/о +9.6 +4.4 70 +6 +6 1011.7 1009.5
11 14.09 З 5 н/о н/о +10.1 +4.6 69 +7 +7 1011.8 1009.6
12 14.09 З 7 н/о н/о +10.4 +4.9 69 +7 +7 1012.0 1009.8
13 14.09 З 7 н/о н/о +10.6 +4.4 65 +7 +7 1012.0 1009.7
14 14.09 З 7 н/о н/о +11.2 +4.6 64 +8 +8 1011.7 1009.5
15 14.09 З 7 н/о н/о +11.9 +6.2 68 +9 +9 1011.3 1009.1
16 14.09 З 7 н/о н/о +12.4 +6.1 65 +10 +10 1010.9 1008.7
17 14.09 З 6 н/о н/о +12.1 +4.9 61 +10 +10 1010.6 1008.4
18 14.09 З 4 н/о н/о +12.1 +3.7 56 +10 +10 1010.1 1007.9 +9.1 +12.5
19 14.09 З 5 н/о н/о +12.4 +4.7 59 +10 +10 1009.6 1007.5
20 14.09 З 7 н/о н/о +12.5 +3.7 55 +10 +10 1009.1 1006.9
21 14.09 З 5 н/о н/о +12.4 +3.3 54 +10 +10 1008.1 1005.9
22 14.09 З 5 н/о н/о +12.2 +2.5 51 +10 +10 1007.2 1005.0
23 14.09 Ю 8 н/о н/о +9.9 +7.3 84 +6 +6 1006.4 1004.2
00 15.09 Ю 8 н/о н/о +9.4 +6.2 80 +5 +5 1004.9 1002.7
01 15.09 Ю 8 н/о н/о +8.0 +5.6 85 +3 +3 1003.7 1001.5
02 15.09 Ю 8 н/о н/о +8.0 +5.8 86 +3 +3 1002.0 999.8
03 15.09 Ю 10 н/о н/о +8.3 +6.4 88 +3 +3 1000.0 997.8
04 15.09 Ю 11 н/о н/о +7.6 +6.2 91 +2 +2 998.4 996.2
05 15.09 Ю 12 н/о н/о +8.0 +7.1 94 +2 +2 996.6 994.4
06 15.09 ЮВ 12 н/о н/о +8.1 +7.5 96 +2 +2 994.2 992.0 +7.5 +12.6
07 15.09 ЮВ 13 н/о н/о +7.9 +7.2 95 +2 +2 992.3 990.1
08 15.09 ЮВ 14 н/о н/о +7.6 +6.3 91 +1 +1 990.2 988.0
09 15.09 ЮВ 13 н/о н/о +7.8 +7.1 95 +2 +2 988.4 986.2
10 15.09 ЮВ 12 н/о н/о +7.4 +7.0 97 +1 +1 987.4 985.2
11 15.09 В 10 н/о н/о +7.2 +7.2 100 +1 +1 986.5 984.3
12 15.09 В 7 н/о н/о +7.7 +7.7 100 +3 +3 985.5 983.3
13 15.09 В 7 н/о н/о +7.6 +7.6 100 +3 +3 984.9 982.8
14 15.09 В 7 н/о н/о +7.8 +7.8 100 +3 +3 984.6 982.4
15 15.09 В 5 н/о н/о +7.9 +7.9 100 +4 +4 984.6 982.4
16 15.09 СВ 4 н/о н/о +8.0 +8.0 100 +4 +4 984.7 982.5
17 15.09 СВ 5 н/о н/о +8.2 +8.1 99 +4 +4 985.0 982.8
18 15.09 С 4 н/о н/о +8.2 +8.1 99 +5 +5 985.3 983.1 +7.1 +8.3
19 15.09 СВ 5 н/о н/о +8.0 +7.9 99 +4 +4 985.5 983.3
20 15.09 СВ 4 н/о н/о +8.2 +8.0 99 +5 +5 985.7 983.5
21 15.09 СВ 4 н/о н/о +8.3 +8.3 100 +5 +5 986.0 983.9
22 15.09 СВ 6 н/о н/о +8.0 +8.0 100 +4 +4 986.4 984.2
23 15.09 СВ 6 н/о н/о +7.9 +7.8 99 +3 +3 987.0 984.8
00 16.09 СВ 7 н/о н/о +8.0 +7.9 99 +3 +3 987.6 985.5
01 16.09 СВ 7 н/о н/о +8.1 +7.7 97 +3 +3 988.4 986.2
02 16.09 СВ 7 н/о н/о +8.0 +7.9 99 +3 +3 989.0 986.8
03 16.09 СВ 8 н/о н/о +8.4 +8.0 97 +4 +4 989.7 987.5
04 16.09 СВ 6 н/о н/о +8.1 +7.2 94 +4 +4 990.3 988.2
05 16.09 СВ 7 н/о н/о +8.4 +7.1 92 +4 +4 991.0 988.8
06 16.09 СВ 7 н/о н/о +8.7 +7.1 90 +4 +4 991.8 989.6 +7.7 +8.9
07 16.09 СВ 7 н/о н/о +9.0 +6.8 86 +5 +5 992.5 990.3
08 16.09 СВ 10 н/о н/о +9.9 +4.8 71 +6 +6 993.0 990.8
09 16.09 С 11 н/о н/о +9.7 +4.2 69 +5 +5 994.0 991.8
10 16.09 С 11-12
{13}
н/о н/о +9.5 +3.4 66 +5 +5 994.6 992.4
11 16.09 С 10 н/о н/о +9.5 +3.9 68 +5 +5 995.3 993.1
12 16.09 С 10-13
{13}
н/о н/о +9.7 +4.1 68 +5 +5 995.8 993.7
13 16.09 С 11 н/о н/о +9.2 +3.6 68 +4 +4 996.3 994.1
14 16.09 С 11 н/о н/о +9.5 +4.1 69 +5 +5 996.6 994.5
15 16.09 С 12-13
{15}
н/о н/о +9.7 +3.6 66 +5 +5 996.6 994.4
16 16.09 С 10 н/о н/о +9.5 +3.0 64 +5 +5 996.8 994.7
17 16.09 С 9 н/о н/о +9.8 +3.6 65 +6 +6 996.9 994.7
18 16.09 СЗ 8-10
{11}
н/о н/о +10.0 +3.1 62 +6 +6 997.0 994.8 +8.7 +10.1
19 16.09 СЗ 9-12
{12}
н/о н/о +10.3 +4.5 67 +6 +6 996.8 994.6
20 16.09 СЗ 8-10
{10}
н/о н/о +10.1 +2.8 60 +6 +6 996.7 994.5
21 16.09 СЗ 9-10
{11}
н/о н/о +10.3 +2.2 57 +6 +6 996.6 994.4
22 16.09 СЗ 8 н/о н/о +10.4 +3.5 62 +7 +7 996.4 994.3
23 16.09 С 8-10
{11}
н/о н/о +10.3 +4.2 66 +7 +7 996.1 994.0
00 17.09 СЗ 8-10
{10}
н/о н/о +10.2 +4.9 70 +6 +6 996.1 993.9
01 17.09 С 9-11
{11}
н/о н/о +10.1 +6.1 76 +6 +6 996.1 993.9
02 17.09 СЗ 9-10
{11}
н/о н/о +9.7 +6.7 82 +5 +5 995.9 993.8
03 17.09 СЗ 10 н/о н/о +9.3 +8.1 92 +4 +4 995.7 993.6
04 17.09 СЗ 10 н/о н/о +9.3 +8.2 93 +4 +4 995.7 993.5
05 17.09 СЗ 11 н/о н/о +9.0 +8.7 98 +4 +4 995.4 993.2
06 17.09 СВ 6-7
{8}
н/о н/о +8.6 +8.2 97 +4 +4 996.1 993.9 +8.5 +10.5
07 17.09 СВ 5-5
{6}
н/о н/о +9.2 +8.4 95 +6 +6 996.4 994.2
08 17.09 СВ 4-6
{7}
н/о н/о +9.4 +7.6 89 +6 +6 996.8 994.6
09 17.09 СВ 4-5
{5}
н/о н/о +9.7 +7.7 87 +7 +7 997.4 995.3
10 17.09 СВ 5-5
{6}
н/о н/о +9.7 +7.7 87 +6 +6 997.7 995.5
11 17.09 СВ 5 н/о н/о +10.0 +6.8 80 +7 +7 998.1 995.9
12 17.09 С 6-7
{8}
н/о н/о +10.3 +6.0 75 +7 +7 998.6 996.4
13 17.09 СВ 5 н/о н/о +10.3 +7.3 82 +7 +7 998.8 996.7
14 17.09 С 6 н/о н/о +10.5 +6.1 74 +7 +7 999.1 996.9
15 17.09 С 7-9
{9}
н/о н/о +10.6 +6.6 76 +7 +7 999.5 997.3
17 17.09 СВ 6 н/о н/о +9.4 +5.2 75 +6 +6 1000.4 998.2
18 17.09 СВ 4-5
{5}
н/о н/о +9.9 +6.6 80 +7 +7 1001.0 998.8 +8.5 +10.5
19 17.09 В 4 н/о н/о +9.3 +6.0 80 +6 +6 1001.4 999.2
20 17.09 СВ 4 н/о н/о +9.4 +5.8 78 +7 +7 1001.8 999.6
21 17.09 СВ 4-4
{6}
н/о н/о +9.6 +6.4 80 +7 +7 1002.4 1000.2
22 17.09 СВ 5 н/о н/о +9.4 +6.3 81 +6 +6 1002.8 1000.6
23 17.09 СВ 5 н/о н/о +9.3 +6.3 82 +6 +6 1003.2 1001.0
00 18.09 В 4-4
{7}
н/о н/о +9.2 +6.0 80 +6 +6 1003.5 1001.3
01 18.09 СВ 3-6
{10}
н/о н/о +8.9 +5.3 78 +7 +7 1003.7 1001.5
02 18.09 В 5-6
{7}
н/о н/о +8.1 +5.1 81 +4 +4 1004.2 1002.0
03 18.09 В 4-5
{6}
н/о н/о +7.3 +4.6 83 +4 +4 1004.9 1002.7
04 18.09 В 4 н/о н/о +7.6 +3.8 77 +4 +4 1005.2 1003.0
05 18.09 СВ 5-8
{8}
н/о н/о +8.1 +4.8 80 +4 +4 1006.1 1003.9
06 18.09 СВ 5-6
{6}
н/о н/о +8.2 +3.1 70 +5 +5 1006.7 1004.4 +7.1 +9.9
07 18.09 СВ 3-5
{6}
н/о н/о +7.8 +3.0 72 +5 +5 1007.3 1005.1
08 18.09 СВ 5-6
{6}
н/о н/о +8.2 +2.3 66 +5 +5 1007.9 1005.6
09 18.09 СВ 4-6
{7}
н/о н/о +8.9 +1.7 61 +6 +6 1008.5 1006.3
10 18.09 СВ 4 н/о н/о +9.1 -1.6 47 +7 +7 1008.8 1006.6
11 18.09 С 4-6
{6}
н/о н/о +9.3 +0.9 56 +7 +7 1009.1 1006.9
12 18.09 С 5-6
{7}
н/о н/о +9.3 +0.9 56 +6 +6 1009.6 1007.4
13 18.09 С 4 н/о н/о +9.2 +1.2 57 +7 +7 1009.7 1007.5
14 18.09 СВ 4-6
{6}
н/о н/о +9.2 +1.7 59 +7 +7 1010.0 1007.8
15 18.09 С 3-5
{6}
н/о н/о +9.4 +2.0 60 +7 +7 1010.3 1008.0
16 18.09 С 3 н/о н/о +9.4 +1.9 59 +7 +7 1010.4 1008.1
17 18.09 В 3 н/о н/о +9.3 +2.7 63 +7 +7 1010.5 1008.2
18 18.09 В 1-2
{3}
н/о н/о +9.2 +1.8 60 +9 +9 1010.8 1008.5 +7.6 +9.6
19 18.09 ЮВ 2 н/о н/о +9.2 +2.3 62 +8 +8 1010.9 1008.7
20 18.09 Ю 4 н/о н/о +9.1 +2.5 63 +6 +6 1010.7 1008.4
21 18.09 Ю 6-7
{7}
н/о н/о +9.2 +4.3 71 +6 +6 1010.5 1008.3
22 18.09 ЮЗ 5-4
{8}
н/о н/о +8.2 +5.4 82 +5 +5 1010.4 1008.2
23 18.09 СЗ 7 н/о н/о +9.5 +6.1 79 +6 +6 1010.0 1007.8
00 19.09 СЗ 9-10
{11}
н/о н/о +9.0 +5.4 78 +4 +4 1010.0 1007.8
01 19.09 СЗ 10 н/о н/о +8.5 +4.7 77 +4 +4 1010.1 1007.8
02 19.09 СЗ 13-15
{15}
н/о н/о +8.2 +6.0 86 +2 +2 1009.8 1007.6
03 19.09 СЗ 15-18
{18}
н/о н/о +8.2 +5.1 81 +2 +2 1009.6 1007.4
04 19.09 С 14 н/о н/о +8.0 +4.7 80 +2 +2 1010.4 1008.2
05 19.09 С 13 н/о н/о +7.7 +4.7 81 +2 +2 1010.8 1008.6
06 19.09 С 17-19
{19}
н/о н/о +6.8 +4.0 82 -0 -0 1011.2 1009.0 +6.7 +9.9
07 19.09 С 14-15
{19}
н/о н/о +7.3 +3.8 78 +1 +1 1012.0 1009.7
08 19.09 С 16-17
{20}
н/о н/о +6.9 +3.2 77 0 0 1012.6 1010.3
09 19.09 С 13-15
{16}
н/о н/о +7.0 +2.2 71 +1 +1 1013.8 1011.6
10 19.09 С 8 н/о н/о +7.0 +3.2 77 +2 +2 1014.6 1012.3
11 19.09 С 13 н/о н/о +8.1 +1.3 62 +3 +3 1014.7 1012.5
12 19.09 С 11-13
{15}
н/о н/о +7.9 0.0 57 +3 +3 1015.7 1013.4
13 19.09 С 10 н/о н/о +7.8 -0.5 56 +3 +3 1016.0 1013.8
14 19.09 С 9 н/о н/о +8.3 -0.2 55 +4 +4 1016.1 1013.8
15 19.09 СЗ 6-8
{11}
н/о н/о +8.7 -0.7 52 +5 +5 1016.1 1013.8
16 19.09 СЗ 6 н/о н/о +8.9 -0.7 51 +6 +6 1016.0 1013.8
17 19.09 СЗ 9 н/о н/о +9.7 -2.1 44 +6 +6 1015.6 1013.4
18 19.09 СЗ 8-11
{11}
н/о н/о +10.0 0.0 50 +6 +6 1015.3 1013.0 +5.6 +10.0
19 19.09 СЗ 9 н/о н/о +9.9 -0.3 49 +6 +6 1015.4 1013.1
20 19.09 СЗ 10-12
{12}
н/о н/о +9.8 +0.2 51 +6 +6 1015.1 1012.9
21 19.09 СЗ 11-12
{12}
н/о н/о +9.7 -0.4 49 +5 +5 1015.2 1013.0
22 19.09 СЗ 10 н/о н/о +9.4 +1.2 57 +5 +5 1015.2 1013.0
23 19.09 СЗ 10-12
{12}
н/о н/о +8.8 +0.8 57 +4 +4 1015.2 1013.0
00 20.09 СЗ 9-12
{12}
н/о н/о +8.4 +0.1 56 +4 +4 1015.2 1012.9
01 20.09 СЗ 9-11
{11}
н/о н/о +8.2 +1.4 62 +4 +4 1014.8 1012.6

 

Местоположение метеостанции Остров Каллан (Финляндия): широта 63.75 долгота 22.52 высота над уровнем моря 2 м.

В архиве по умолчанию представлена погода на Острове Каллан за последнюю неделю. Архивные данные за месяц целиком и за предыдущие месяцы, начиная с января 2011 года, Вы можете получить, выбрав интересующий диапазон дат из раскрывающегося списка и нажав кнопку "Ввод!".


*Определитесь, кто Вы:
робот инопланетянин человек

Внимание! Время в таблицах - всемирное. Для получения местного времени необходимо прибавить поправку, которая равна 1 ч.

Смотрите также архив погоды в соседних городах и на ближайших метеорологических станциях:

Погода на Танкаре (Финляндия) (27 км)
Погода в Круунупюу (Финляндия) (31 км)
Погода в Кокколе (Финляндия) (31 км)
Погода в Каухаве (Финляндия) (73 км)
Погода на Острове Улкокалла (Финляндия) (79 км)
Погода на Маяке Valassaaret (Финляндия) (80 км)
Погода в Лаитале (Финляндия) (81 км)
Погода на Хольмёне (Швеция) (81 км)
Погода в Васе (Финляндия) (85 км)
Погода в Йлистаро Пелма (Финляндия) (90 км)

Пояснения к столбцам:

Ветер - указаны скорость ветра в м/с - средняя за 10 мин, порывы в срок и между сроками (в фигурных скобках) и направление, откуда дует ветер: С - северный, СВ - северо-восточный, В - восточный, ЮВ - юго-восточный, Ю - южный, ЮЗ - юго-западный, З - западный, СЗ - северо-западный.
Видимость - горизонтальная дальность видимости в метрах или километрах. При видимости от 1 до 10 км при отсутствии осадков обычно наблюдается дымка, при ухудшении видимости до 1 км и менее - туман. В сухую погоду видимость может ухудшаться дымом, пылью или мглою.
Явления - указаны атмосферные явления, наблюдавшиеся в срок или в последний час перед сроком; фигурными скобками обозначены явления, наблюдавшиеся между сроками (за 1-3 часа до срока); квадратными скобками обозначены град или гололедные отложения с указанием их диаметра в мм.
Облачность - указаны через наклонную черту общая и нижняя облачность в баллах и высота нижней границы облаков в метрах; квадратными скобками обозначены формы облаков: Ci - перистые, Cs - перисто-слоистые, Cc - перисто-кучевые, Ac - высококучевые, As - высокослоистые, Sc - слоисто-кучевые, Ns - слоисто-дождевые, Cu - кучевые, Cb - кучево-дождевые. Подробнее классификацию облаков см. в Атласе облаков (PDF).
T - Температура воздуха - температура, измеренная на высоте 2 м над землей.
Td - Температура точки росы - температура, при понижении до которой содержащийся в воздухе водяной пар достигнет насыщения.
f - Относительная влажность воздуха - влажноcть воздуха, измеренная на высоте 2 м над землей.
Te - Эффективная температура - температура, которую ощущает одетый по сезону человек в тени. Характеристика душности погоды. При расчете учитывается влияние влажности воздуха и скорости ветра на теплоощущения человека.
Tes - Эффективная температура на солнце - температура, которую ощущает человек, с поправкой на солнечный нагрев. Характеристика знойности погоды. Зависит от высоты солнца над горизонтом, облачности и скорости ветра. Ночью, в пасмурную погоду, а также при ветре 12 м/с и более поправка равна нулю.
P - Атмосферное давление - приведенное к уровню моря атмосферное давление.
Po - Атмосферное давление - измеренное на уровне метеостанции атмосферное давление.
Tmin - Минимальная температура - минимум температуры воздуха на высоте 2 м над землей.
Tmax - Максимальная температура - максимум температуры воздуха на высоте 2 м над землей.
R - Количество осадков - Количество выпавших осадков за период времени, мм. При наведении курсора мыши на число - период времени, за который выпало указанное количество осадков.
R24 - Количество осадков - Количество выпавших осадков за 24 часа, мм.
S - Снежный покров - Высота снежного покрова, см. При наведении курсора мыши на число - состояние снежного покрова и степень покрытия местности в баллах.